カタログに戻る

OPS 7641

運用中軍事GEO
NORAD 14930·PAYLOAD·🇺🇸 United States

打ち上げ Apr 14, 1984 から Cape Canaveral Space Force Station

Loading…

TLE

最新Source: Space-Track

元期: Sep 14, 2026, 06:21 UTC

1 14930U 84037A   26257.26476425  .00000012  00000-0  00000-0 0  9990
2 14930  10.0386 315.3306 0009892 282.5230  83.2620  0.98680028 25872

AllMySatでOPS 7641をリアルタイム追跡

Download on the App Store